AirNav   ProFlight Series 2 Aviation Headset
 
 917 users online  

F95 Calhoun County Airport
Blountstown, Florida, USA

GOING TO BLOUNTSTOWN?


FAA INFORMATION EFFECTIVE 16 JULY 2020

Location

FAA Identifier: F95
Lat/Long: 30-29-13.3085N 085-06-49.6260W
30-29.221808N 085-06.827100W
30.4870301,-85.1137850
(estimated)
Elevation: 122 ft. / 37 m (estimated)
Variation: 02W (1995)
From city: 5 miles NW of BLOUNTSTOWN, FL
Time zone: UTC -5 (UTC -6 during Standard Time)
Zip code: 32421

Airport Operations

Airport use: Open to the public
Activation date: 12/1996
Control tower: no
ARTCC: JACKSONVILLE CENTER
FSS: GAINESVILLE FLIGHT SERVICE STATION
NOTAMs facility: GNV (NOTAM-D service available)
Attendance: MON-FRI 0700-1500
Wind indicator: lighted
Segmented circle: yes
Lights: ACTVT MIRL RY 18/36 AND PAPI RYS 18 & 36 - CTAF.
Beacon: white (unlighted land airport)
Operates sunset to sunrise.

Airport Communications

CTAF: 122.9
WX AWOS-AV: 119.350 (850-674-1347)

Nearby radio navigation aids

VOR radial/distance  VOR name  Freq  Var
MAIr178/18.0MARIANNA VORTAC114.0000E
SZWr262/38.5SEMINOLE VORTAC117.5002E

 
NDB name  Hdg/Dist  Freq  Var  ID
SOYYA168/23.832902WSMY ... -- -.--
LYNNE078/35.927804WPFN .--. ..-. -.

Airport Services

Fuel available: 100LL JET-A
Parking: hangars and tiedowns
Airframe service: MAJOR
Powerplant service: MAJOR
Bottled oxygen: NONE
Bulk oxygen: NONE

Runway Information

Runway 18/36

Dimensions: 3730 x 75 ft. / 1137 x 23 m
Surface: asphalt, in good condition
Weight bearing capacity: 
PCN 13 /F/A/Y/T
Runway edge lights: medium intensity
RUNWAY 18  RUNWAY 36
Latitude: 30-29.529467N30-28.914150N
Longitude: 085-06.827600W085-06.826600W
Elevation: 120.9 ft.118.1 ft.
Traffic pattern: leftleft
Runway heading: 182 magnetic, 180 true002 magnetic, 360 true
Markings: nonprecision, in good conditionnonprecision, in good condition
Visual slope indicator: 2-light PAPI on left (3.00 degrees glide path)2-light PAPI on left (3.00 degrees glide path)
Obstructions: 68 ft. trees, 1547 ft. from runway, 40 ft. left of centerline, 20:1 slope to clear
APPROACH SLOPE 20:1 TO THE DSPLCD THLD DUE TO 88 FT TREE 185 FT L OF CNTRLN AND 1600 FT FRM RY END.
15 ft. road, 425 ft. from runway, 125 ft. right of centerline, 15:1 slope to clear

Airport Ownership and Management from official FAA records

Ownership: Publicly-owned
Owner: CALHOUN COUNTY
20589 CENTRAL AVENUE EAST
BLOUNTSTOWN, FL 32424
Phone 850-674-4545
Manager: SCOTT SNYDER
16701 AGRIPARK ROAD
ALTHA, FL 32421
Phone 850-559-2410
AIRPORT PHYSICAL ADDRESS: 16701 NORTHWEST AGRIPARK ROAD, ALTHA, FL 3241 850-674-2499 FAX: 850-674-1578.

Airport Operational Statistics

Aircraft based on the field: 9
Single engine airplanes: 9
    
Aircraft operations: avg 38/week *
50% transient general aviation
50% local general aviation
* for 12-month period ending 05 March 2018

Additional Remarks

FOR CD CTC TYNDALL APCH AT 850-283-2900 OR 850-283-3353, WHEN APCH CLSD CTC JACKSONVILLE ARTCC AT 904-845-1592.

Instrument Procedures

There are no published instrument procedures at F95.

Some nearby airports with instrument procedures:

KMAI - Marianna Municipal Airport (21 nm N)
2J9 - Quincy Municipal Airport (30 nm E)
1J0 - Tri-County Airport (33 nm NW)
17J - Donalsonville Municipal Airport (33 nm N)
KPAM - Tyndall Air Force Base (35 nm SW)
 
Loc | Ops | Rwys | IFR | FBO | Links
Com | Nav | Svcs | Stats | Notes

Continental Services
AirBoss

 
Area around F95 (Calhoun County Airport)
 
Road maps at: MapQuest Bing Google
 
Aerial photo
WARNING: Photo may not be current or correct
Aerial photo of F95 (Calhoun County Airport)
Photo by Brian Christopher
Photo taken 08-Aug-2010

Do you have a better or more recent aerial photo of Calhoun County Airport that you would like to share? If so, please send us your photo.

 
Sectional chart

 
Airport distance calculator
Flying to Calhoun County Airport? Find the distance to fly.

From to F95

Sunrise and sunset
Times for 07-Aug-2020
 Local
(UTC-5)
 Zulu
(UTC)
Morning civil twilight05:3810:38
Sunrise06:0411:04
Sunset19:2800:28
Evening civil twilight19:5400:54

Current date and time
Zulu (UTC)  08-Aug-2020 02:57:00
Local (UTC-5)  07-Aug-2020 21:57:00
 
METAR
KMAI 
21nm N 
080153Z AUTO 22005KT 10SM CLR 27/23 A3007 RMK AO2 SLP179 T02670233
K2J9 
30nm E 
080235Z AUTO 00000KT 10SM OVC030 26/24 A3011 RMK AO2
K1J0 
33nm NW 
080158Z AUTO 00000KT 10SM CLR 27/23 A3008 RMK AO2 SLP145 T02720233
K17J 
33nm N 
080235Z AUTO 23004KT 10SM CLR 26/23 A3010 RMK AO2 T02640232
KTDR 
34nm SW 
080156Z AUTO 22003KT 10SM SCT023 27/24 A3009 RMK AO2 SLP193 T02740240 $
KPAM 
34nm SW 
080156Z AUTO 23004KT 10SM FEW026 29/24 A3008 RMK AO2 SLP189 T02850238 $
KECP 
36nm W 
080153Z 17003KT 10SM CLR 27/24 A3007 RMK AO2 SLP193 T02720244 $
KBGE 
38nm NE 
080235Z AUTO 20005KT 10SM CLR 26/22 A3010 RMK AO2 T02650224
KTLH 
40nm E 
080153Z 17004KT 10SM FEW250 27/24 A3008 RMK AO2 SLP186 T02670244
TAF
KECP 
36nm W 
071724Z 0718/0818 21007KT P6SM SCT050 FM080400 VRB03KT P6SM SCT250 FM081700 21005KT P6SM SCT250
KTLH 
40nm E 
071724Z 0718/0818 24006KT P6SM VCTS SCT040CB FM080000 21006KT P6SM SCT060 FM081500 26006KT P6SM SCT250
NOTAMs
Click for the latest NOTAMs
NOTAMs are issued by the DoD/FAA and will open in a separate window not controlled by AirNav.

 

 
 

FBO, Fuel Providers, and Aircraft Ground Support

  
 Business Name 
 
 Contact 
 
 Services / Description 
 
Fuel Prices
 
Comments
  
Calhoun County Airport 850-674-2499
no information available

If you are affiliated with Calhoun County Airport and would like to show here your services, contact info, web link, logo, and more, click here
100LL Jet A
SS $3.25 $2.95 
 Updated 06-Aug-2020
 
   write
SS=Self service
Update Fuel Prices
 

Would you like to see your business listed on this page?

 If your business provides an interesting product or service to pilots, flight crews, aircraft, or users of the Calhoun County Airport, you should consider listing it here.  To start the listing process, click on the button below
 
Add a business
 

Other Pages about Calhoun County Airport

Update a link
 
Copyright © AirNav, LLC. All rights reserved. Privacy Policy  Contact